• In Hungary
  • List of Countries
  • For 7 days
  • Water Temperature
  • Satellite Maps
  • Weather Map
  • News
  • Weather Widgets
  • user-avatar
    Login

    Hourly Weather Osetin

    Today, 23 October, Tuesday

    Time Temperature Precipitation Wind Pressure Humidity
    00:00 +2°C° 0 mm 3 mps 746 mmHg 59%
    01:00 +1°C° 0 mm 3 mps 746 mmHg 60%
    02:00 +1°C° 0 mm 3 mps 746 mmHg 61%
    03:00 +1°C° 0 mm 3 mps 746 mmHg 62%
    04:00 +1°C° 0 mm 3 mps 746 mmHg 64%
    05:00 +1°C° 0 mm 3 mps 746 mmHg 65%
    06:00 0°C° 0 mm 4 mps 746 mmHg 66%
    07:00 -1°C° 0 mm 4 mps 746 mmHg 67%
    08:00 +1°C° 0 mm 4 mps 745 mmHg 63%
    09:00 +4°C° 0 mm 4 mps 745 mmHg 59%
    10:00 +5°C° 0 mm 5 mps 745 mmHg 55%
    11:00 +6°C° 0 mm 5 mps 745 mmHg 52%
    12:00 +8°C° 0 mm 5 mps 744 mmHg 50%
    13:00 +9°C° 0 mm 5 mps 744 mmHg 48%
    14:00 +9°C° 0 mm 5 mps 744 mmHg 49%
    15:00 +10°C° 0 mm 4 mps 743 mmHg 51%
    16:00 +10°C° 0 mm 4 mps 743 mmHg 52%
    17:00 +10°C° 0 mm 4 mps 743 mmHg 55%
    18:00 +8°C° 0 mm 5 mps 743 mmHg 58%
    19:00 +7°C° 0 mm 5 mps 742 mmHg 62%
    20:00 +7°C° 0 mm 5 mps 742 mmHg 61%
    21:00 +5°C° 0 mm 6 mps 742 mmHg 61%
    22:00 +5°C° 0 mm 6 mps 742 mmHg 61%
    23:00 +5°C° 0 mm 6 mps 742 mmHg 61%

    Tomorrow, 24 October, Wednesday

    Time Temperature Precipitation Wind Pressure Humidity
    00:00 +5°C° 0 mm 6 mps 741 mmHg 60%
    01:00 +4°C° 0 mm 6 mps 741 mmHg 60%
    02:00 +4°C° 0 mm 6 mps 741 mmHg 58%
    03:00 +5°C° 0 mm 5 mps 741 mmHg 57%
    04:00 +5°C° 0 mm 5 mps 740 mmHg 55%
    05:00 +5°C° 0 mm 5 mps 740 mmHg 52%
    06:00 +3°C° 0 mm 5 mps 740 mmHg 50%
    07:00 +3°C° 0 mm 5 mps 740 mmHg 47%
    08:00 +4°C° 0 mm 6 mps 739 mmHg 45%
    09:00 +5°C° 0 mm 6 mps 739 mmHg 42%
    10:00 +7°C° 0 mm 6 mps 739 mmHg 39%
    11:00 +7°C° 0.1 mm 6 mps 739 mmHg 40%
    12:00 +7°C° 0.1 mm 6 mps 738 mmHg 41%
    13:00 +8°C° 0.1 mm 6 mps 738 mmHg 43%
    14:00 +8°C° 0 mm 6 mps 738 mmHg 45%
    15:00 +8°C° 0 mm 6 mps 738 mmHg 46%
    16:00 +8°C° 0 mm 6 mps 737 mmHg 48%
    17:00 +8°C° 0 mm 5 mps 737 mmHg 51%
    18:00 +7°C° 0 mm 5 mps 737 mmHg 54%
    19:00 +7°C° 0 mm 5 mps 738 mmHg 57%
    20:00 +7°C° 0 mm 5 mps 737 mmHg 60%
    21:00 +6°C° 0 mm 5 mps 737 mmHg 63%
    22:00 +6°C° 0 mm 4 mps 737 mmHg 65%
    23:00 +6°C° 0 mm 4 mps 737 mmHg 67%

    Day after tomorrow, 25 October, Thursday

    Time Temperature Precipitation Wind Pressure Humidity
    00:00 +6°C° 0 mm 4 mps 737 mmHg 69%
    01:00 +6°C° 0 mm 4 mps 737 mmHg 71%
    02:00 +6°C° 0 mm 4 mps 737 mmHg 72%
    03:00 +5°C° 0 mm 4 mps 737 mmHg 73%
    04:00 +5°C° 0 mm 4 mps 737 mmHg 75%
    05:00 +5°C° 0 mm 4 mps 737 mmHg 74%
    06:00 +5°C° 0 mm 4 mps 737 mmHg 74%
    07:00 +5°C° 0 mm 5 mps 737 mmHg 74%
    08:00 +7°C° 0 mm 5 mps 737 mmHg 66%
    09:00 +9°C° 0 mm 6 mps 737 mmHg 59%
    10:00 +10°C° 0 mm 6 mps 737 mmHg 51%
    11:00 +12°C° 0 mm 7 mps 737 mmHg 47%
    12:00 +14°C° 0 mm 7 mps 737 mmHg 43%
    13:00 +15°C° 0 mm 7 mps 736 mmHg 39%
    14:00 +15°C° 0 mm 7 mps 736 mmHg 39%
    15:00 +15°C° 0 mm 7 mps 736 mmHg 40%
    16:00 +15°C° 0 mm 6 mps 736 mmHg 40%
    17:00 +14°C° 0 mm 7 mps 736 mmHg 41%
    18:00 +12°C° 0 mm 7 mps 735 mmHg 43%
    19:00 +12°C° 0 mm 8 mps 735 mmHg 44%
    20:00 +11°C° 0 mm 8 mps 735 mmHg 45%
    21:00 +11°C° 0 mm 8 mps 735 mmHg 45%
    22:00 +11°C° 0 mm 8 mps 735 mmHg 46%
    23:00 +11°C° 0 mm 8 mps 735 mmHg 46%

    26 October, Friday

    Time Temperature Precipitation Wind Pressure Humidity
    00:00 +11°C° 0 mm 8 mps 734 mmHg 47%
    01:00 +10°C° 0 mm 8 mps 734 mmHg 47%
    02:00 +10°C° 0 mm 8 mps 734 mmHg 48%
    03:00 +10°C° 0 mm 9 mps 734 mmHg 48%
    04:00 +10°C° 0 mm 9 mps 733 mmHg 48%
    05:00 +10°C° 0 mm 9 mps 733 mmHg 49%
    06:00 +10°C° 0 mm 9 mps 732 mmHg 49%
    07:00 +10°C° 0 mm 9 mps 732 mmHg 49%
    08:00 +12°C° 0 mm 10 mps 732 mmHg 45%
    09:00 +13°C° 0 mm 11 mps 731 mmHg 42%
    10:00 +16°C° 0 mm 11 mps 731 mmHg 38%
    11:00 +17°C° 0 mm 11 mps 731 mmHg 35%
    12:00 +18°C° 0 mm 11 mps 730 mmHg 33%
    13:00 +21°C° 0 mm 10 mps 730 mmHg 30%
    14:00 +20°C° 0 mm 8 mps 730 mmHg 31%
    15:00 +18°C° 0 mm 7 mps 730 mmHg 32%
    16:00 +19°C° 0 mm 5 mps 729 mmHg 33%
    17:00 +18°C° 0 mm 4 mps 730 mmHg 39%
    18:00 +17°C° 0 mm 4 mps 730 mmHg 44%
    19:00 +15°C° 0 mm 4 mps 730 mmHg 49%
    20:00 +14°C° 0 mm 4 mps 730 mmHg 57%
    21:00 +13°C° 0 mm 3 mps 730 mmHg 65%
    22:00 +12°C° 0 mm 3 mps 730 mmHg 72%
    23:00 +11°C° 0 mm 4 mps 730 mmHg 71%

    27 October, Saturday

    Time Temperature Precipitation Wind Pressure Humidity
    00:00 +10°C° 0 mm 5 mps 730 mmHg 69%
    01:00 +9°C° 0 mm 6 mps 730 mmHg 68%
    02:00 +9°C° 0.1 mm 7 mps 731 mmHg 66%
    03:00 +8°C° 0.1 mm 7 mps 731 mmHg 65%
    04:00 +8°C° 0.1 mm 7 mps 731 mmHg 64%
    05:00 +7°C° 0.7 mm 6 mps 732 mmHg 66%
    06:00 +7°C° 0.7 mm 6 mps 732 mmHg 69%
    07:00 +6°C° 0.7 mm 5 mps 732 mmHg 72%
    08:00 +7°C° 0.2 mm 5 mps 733 mmHg 69%
    09:00 +7°C° 0.2 mm 6 mps 733 mmHg 65%
    10:00 +7°C° 0.2 mm 6 mps 734 mmHg 62%
    11:00 +8°C° 0 mm 6 mps 734 mmHg 58%
    12:00 +8°C° 0 mm 7 mps 734 mmHg 54%
    13:00 +8°C° 0 mm 7 mps 734 mmHg 50%
    14:00 +8°C° 0 mm 7 mps 734 mmHg 50%
    15:00 +8°C° 0 mm 7 mps 735 mmHg 50%
    16:00 +7°C° 0 mm 6 mps 735 mmHg 50%
    17:00 +7°C° 0 mm 6 mps 736 mmHg 53%
    18:00 +5°C° 0 mm 6 mps 736 mmHg 56%
    19:00 +5°C° 0 mm 5 mps 737 mmHg 58%
    20:00 +5°C° 0 mm 5 mps 737 mmHg 59%
    21:00 +3°C° 0 mm 5 mps 738 mmHg 59%
    22:00 +2°C° 0 mm 5 mps 738 mmHg 59%
    23:00 +2°C° 0 mm 5 mps 739 mmHg 62%

    28 October, Sunday

    Time Temperature Precipitation Wind Pressure Humidity
    00:00 +1°C° 0 mm 5 mps 740 mmHg 64%
    01:00 +1°C° 0 mm 5 mps 740 mmHg 66%
    02:00 +1°C° 0 mm 5 mps 741 mmHg 68%
    03:00 0°C° 0 mm 5 mps 742 mmHg 71%
    04:00 0°C° 0 mm 5 mps 742 mmHg 73%
    05:00 0°C° 0 mm 5 mps 743 mmHg 74%
    06:00 0°C° 0 mm 5 mps 744 mmHg 75%
    07:00 -1°C° 0 mm 5 mps 744 mmHg 77%
    08:00 0°C° 0 mm 5 mps 745 mmHg 72%
    09:00 +1°C° 0 mm 6 mps 746 mmHg 68%
    10:00 +2°C° 0 mm 6 mps 746 mmHg 63%
    11:00 +3°C° 0 mm 7 mps 747 mmHg 59%
    12:00 +4°C° 0 mm 7 mps 747 mmHg 55%
    13:00 +4°C° 0 mm 7 mps 748 mmHg 52%
    14:00 +4°C° 0 mm 7 mps 748 mmHg 51%
    15:00 +4°C° 0 mm 6 mps 748 mmHg 51%
    16:00 +4°C° 0 mm 6 mps 749 mmHg 50%
    17:00 +3°C° 0 mm 6 mps 749 mmHg 53%
    18:00 +3°C° 0 mm 5 mps 749 mmHg 55%
    19:00 +2°C° 0 mm 5 mps 750 mmHg 57%
    20:00 +3°C° 0 mm 6 mps 750 mmHg 59%
    21:00 +3°C° 0 mm 6 mps 750 mmHg 61%
    22:00 +3°C° 0 mm 6 mps 750 mmHg 64%
    23:00 +3°C° 0 mm 7 mps 750 mmHg 64%

    29 October, Monday

    Time Temperature Precipitation Wind Pressure Humidity
    00:00 +3°C° 0 mm 7 mps 750 mmHg 64%
    01:00 +3°C° 0 mm 7 mps 750 mmHg 64%
    02:00 +3°C° 0 mm 7 mps 750 mmHg 63%
    03:00 +4°C° 0 mm 7 mps 750 mmHg 62%
    04:00 +4°C° 0 mm 7 mps 751 mmHg 60%
    05:00 +4°C° 0 mm 7 mps 751 mmHg 61%
    06:00 +3°C° 0 mm 7 mps 751 mmHg 61%
    07:00 +3°C° 0 mm 7 mps 751 mmHg 61%
    08:00 +4°C° 0 mm 7 mps 751 mmHg 59%
    09:00 +5°C° 0 mm 8 mps 751 mmHg 57%
    10:00 +6°C° 0 mm 9 mps 751 mmHg 54%
    11:00 +7°C° 0 mm 9 mps 751 mmHg 51%
    12:00 +8°C° 0 mm 9 mps 751 mmHg 47%
    13:00 +10°C° 0 mm 9 mps 751 mmHg 43%
    14:00 +10°C° 0 mm 8 mps 751 mmHg 44%
    15:00 +10°C° 0 mm 8 mps 751 mmHg 44%
    16:00 +10°C° 0 mm 7 mps 751 mmHg 45%
    17:00 +9°C° 0 mm 7 mps 751 mmHg 46%
    18:00 +9°C° 0 mm 7 mps 751 mmHg 46%
    19:00 +8°C° 0 mm 7 mps 751 mmHg 47%
    20:00 +8°C° 0 mm 7 mps 751 mmHg 48%
    21:00 +8°C° 0 mm 7 mps 751 mmHg 48%
    22:00 +6°C° 0 mm 7 mps 751 mmHg 49%
    23:00 +6°C° 0 mm 7 mps 751 mmHg 50%
    Show more